Seattle, WA
on Sunday, February 10, 2013

Sunday
Previous Day Next Day
Daily Summary
 ActualAverageRecord
Temperature
Mean Temperature °F 43°F  
Max Temperature 48°F 49°F 65°F (1963)
Min Temperature 35°F 37°F 24°F (1982)
Degree Days
Heating Degree Days 23 22  
Month to date heating degree days 207 220  
Since 1 July heating degree days 2781 2869  
Cooling Degree Days 0 0  
Month to date cooling degree days 0 0  
Year to date cooling degree days 0 0  
Moisture
Dew Point 36°F   
Average Humidity 77    
Maximum Humidity 92    
Minimum Humidity 61    
Precipitation
Precipitation 0.00 in 0.13 in 0.96 in (1949)
Month to date precipitation 0.33 1.33  
Year to date precipitation 4.49 6.90  
Snow
Snow 0.00 in in 5.10 in (1959)
Month to date snowfall 0.0  
Since 1 July snowfall 0.6  
Snow Depth 0.00 in   
Wind
Wind Speed 5 mph   
Max Wind Speed 10 mph   
Max Gust Speed 14 mph   
Visibility 7 miles   
Events Fog   

Key: T is trace of precipitation, MM is missing value
Source: NWS Daily Summary
Time(PST)TemperatureDew PointHumidity Pressure Visibility Wind DirectionWind SpeedGust SpeedPrecipitationEvents Conditions
12:25 AM 42.8°F 39.2°F 87% 30.34 in 6.0 miles North 3.5 mph - N/A   Overcast
12:53 AM 43.0°F 39.0°F 86% 30.36 in 6.0 miles ENE 5.8 mph - N/A   Overcast
1:23 AM 42.8°F 39.2°F 87% 30.34 in 5.0 miles North 3.5 mph - N/A   Overcast
1:53 AM 43.0°F 39.0°F 86% 30.37 in 6.0 miles NNE 5.8 mph - N/A   Overcast
2:53 AM 43.0°F 39.0°F 86% 30.37 in 6.0 miles NNE 6.9 mph - N/A   Overcast
3:36 AM 42.8°F 39.2°F 87% 30.34 in 8.0 miles NE 8.1 mph - N/A   Overcast
3:53 AM 42.1°F 37.9°F 85% 30.37 in 10.0 miles NE 4.6 mph - N/A   Overcast
4:36 AM 41.0°F 35.6°F 81% 30.34 in 10.0 miles NNE 5.8 mph - N/A   Mostly Cloudy
4:53 AM 41.0°F 36.0°F 82% 30.37 in 10.0 miles NE 5.8 mph - N/A   Mostly Cloudy
5:33 AM 39.2°F 35.6°F 87% 30.34 in 10.0 miles NE 4.6 mph - N/A   Scattered Clouds
5:53 AM 39.0°F 35.1°F 86% 30.37 in 10.0 miles NNE 5.8 mph - N/A   Scattered Clouds
6:53 AM 37.0°F 34.0°F 89% 30.38 in 7.0 miles NE 4.6 mph - N/A   Scattered Clouds
7:17 AM 37.4°F 35.6°F 93% 30.36 in 6.0 miles NNE 4.6 mph - N/A   Scattered Clouds
7:21 AM 37.4°F 33.8°F 87% 30.36 in 4.0 miles NNE 5.8 mph - N/A Fog Patches of Fog
7:39 AM 37.4°F 33.8°F 87% 30.36 in 4.0 miles NNE 6.9 mph - N/A Fog Patches of Fog
7:41 AM 37.4°F 33.8°F 87% 30.36 in 0.5 miles NNE 5.8 mph - N/A Fog Fog
7:53 AM 37.9°F 35.1°F 89% 30.39 in 0.5 miles NE 5.8 mph - N/A Fog Fog
8:11 AM 35.6°F 33.8°F 93% 30.36 in 0.2 miles NNE 3.5 mph - N/A Fog Fog
8:53 AM 37.9°F 35.1°F 89% 30.40 in 0.2 miles NE 4.6 mph - N/A Fog Fog
9:53 AM 37.9°F 36.0°F 93% 30.40 in 0.2 miles Calm Calm - N/A Fog Fog
10:10 AM 39.2°F 35.6°F 87% 30.37 in 0.2 miles East 3.5 mph - N/A Fog Fog
10:22 AM 39.2°F 37.4°F 93% 30.37 in 0.2 miles Calm Calm - N/A Fog Fog
10:30 AM 39.2°F 37.4°F 93% 30.37 in 0.2 miles Calm Calm - N/A Fog Fog
10:37 AM 39.2°F 37.4°F 93% 30.37 in 0.2 miles Calm Calm - N/A Fog Fog
10:53 AM 41.0°F 37.0°F 86% 30.40 in 1.5 miles NNE 3.5 mph - N/A   Mostly Cloudy
11:05 AM 42.8°F 37.4°F 81% 30.37 in 6.0 miles Calm Calm - N/A   Haze
11:13 AM 42.8°F 37.4°F 81% 30.37 in 8.0 miles Calm Calm - N/A   Mostly Cloudy
11:53 AM 46.0°F 36.0°F 68% 30.39 in 10.0 miles North 6.9 mph - N/A   Scattered Clouds
12:53 PM 46.0°F 36.0°F 68% 30.38 in 10.0 miles NNW 6.9 mph - N/A   Mostly Cloudy
1:53 PM 48.0°F 35.1°F 61% 30.37 in 10.0 miles NNW 5.8 mph - N/A   Mostly Cloudy
2:53 PM 44.1°F 36.0°F 73% 30.37 in 10.0 miles WNW 6.9 mph - N/A   Mostly Cloudy
3:18 PM 42.8°F 35.6°F 76% 30.34 in 10.0 miles WNW 6.9 mph - N/A   Mostly Cloudy
3:53 PM 44.1°F 36.0°F 73% 30.37 in 10.0 miles WNW 5.8 mph - N/A   Overcast
4:53 PM 43.0°F 36.0°F 76% 30.38 in 10.0 miles NW 5.8 mph - N/A   Overcast
5:53 PM 43.0°F 36.0°F 76% 30.37 in 10.0 miles Calm Calm - N/A   Overcast
6:53 PM 43.0°F 36.0°F 76% 30.38 in 10.0 miles Calm Calm - N/A   Overcast
7:53 PM 43.0°F 36.0°F 76% 30.38 in 10.0 miles WNW 3.5 mph - N/A   Overcast
8:53 PM 43.0°F 36.0°F 76% 30.38 in 10.0 miles North 4.6 mph - N/A   Overcast
9:12 PM 42.8°F 35.6°F 76% 30.34 in 10.0 miles North 3.5 mph - N/A   Overcast
9:53 PM 43.0°F 36.0°F 76% 30.36 in 10.0 miles North 3.5 mph - N/A   Overcast
10:53 PM 43.0°F 37.0°F 80% 30.35 in 10.0 miles Calm Calm - N/A   Overcast
11:25 PM 42.8°F 37.4°F 81% 30.33 in 10.0 miles Calm Calm - N/A   Overcast
11:53 PM 42.1°F 37.9°F 85% 30.36 in 10.0 miles North 4.6 mph - N/A   Overcast
Moon Phase
Feb. 10 Feb. 17 Feb. 25 Mar. 04 Mar. 11
Sunrise:07:22 AM (PST) Moon Rise:07:09 AM (PST)2/10
Sunset:05:25 PM (PST) Moon Set:06:30 PM (PST)2/10

Copyright © 2014 The Weather Underground, Inc.